Find Starlink 32657

NORAD ID: 62475 Int'l Des: 2024-254 Owner: SPXS Country: US Constellation: starlink operational
LEOCIRCULAR

当前视图

正在加载3D地球...

About Starlink 32657

Starlink 32657 (NORAD 62475) is a starlink constellation satellite (v2 mini) launched Dec 31, 2024 by SPXS of US. It operates in LEO, CIRCULAR orbit with a mass of 730.00 kg.

即将过境

Passes for default location (London). Set your location on the main map for personalized predictions.

高度历史

Loading altitude history...

两行轨道根数

1 62475U 24254P 26262.35609422 .00012154 00000-0 45006-3 0 9991
2 62475 43.0031 5.9434 0002466 283.3425 76.7152 15.27609969 97083
Epoch: Sep 19, 2026 • Age: 65 hours

当前状态

高度 494.5 km
远地点 / 近地点 N/A
速度 7.62 km/s
星下点 -42.48°S, 143.23°W
发射日期 Dec 31, 2024
运行时间 1.7 years
类型 internet

技术详情

分类 Payload
质量 730.00 kg
干质量 700.00 kg
长度 0.30 m
跨度 29.00 m
形状 ? Box + pan
制造商 SPXS
平台类型 Starlink V2M
阶段状态 In Orbit
所有者/国家 SPXS/US

Most Searched